Total_Precipitation_Accumulation
1.68 1.68 2.40 3.35 3.81 3.33 2.99 2.41 1.93 1.61 1.36 1.08 0.86 0.81 1.22 1.65 2.14 2.45 2.32 2.16 1.67 1.39 1.49 2.13 2.68 2.40 2.12 1.96 2.00 2.14 2.05 2.03 1.88 1.81 1.63 1.49 1.26 1.15 1.07 0.97 0.91 0.92 0.84 0.76 0.83 1.01 1.00 1.03 1.06
1.57 2.32 3.22 4.09 3.69 2.94 2.81 2.31 1.96 1.52 1.04 0.82 0.66 0.67 0.88 0.89 0.87 1.30 2.24 2.33 1.61 1.30 1.37 1.88 2.72 2.41 2.27 2.17 2.20 2.15 2.09 2.13 1.92 1.74 1.61 1.47 1.33 1.28 1.22 1.29 1.30 1.14 0.94 0.85 0.87 1.05 1.01 0.97 1.04
1.74 2.97 4.09 4.04 2.93 2.57 2.77 2.26 1.66 1.19 0.81 0.77 0.72 0.63 0.79 1.03 1.09 1.70 2.35 2.01 1.51 1.28 1.41 2.17 2.79 2.47 2.33 2.29 2.24 2.09 2.15 2.23 2.01 1.75 1.56 1.39 1.40 1.56 1.59 1.53 1.40 1.18 0.97 0.88 0.88 0.98 1.01 0.95 0.95
2.15 3.38 3.55 3.08 2.69 2.27 2.08 1.85 1.40 1.35 1.01 0.72 0.69 0.72 0.70 1.02 1.23 1.67 1.85 1.63 1.49 1.49 1.52 2.20 2.78 2.56 2.37 2.31 2.21 2.12 2.13 2.23 2.14 1.83 1.57 1.44 1.44 1.49 1.51 1.48 1.36 1.16 0.99 0.86 0.91 1.00 1.00 0.99 0.99
2.60 3.23 3.21 2.76 2.53 2.15 1.64 1.48 1.32 1.47 1.31 0.87 0.70 0.91 1.08 1.41 1.54 1.60 1.64 1.65 1.38 1.41 1.50 1.93 2.50 2.42 2.25 2.18 2.15 2.21 2.18 2.15 2.16 1.90 1.65 1.59 1.52 1.47 1.49 1.43 1.32 1.08 0.96 0.87 0.96 1.03 1.00 0.99 1.04
2.88 2.90 3.11 2.94 2.70 2.31 1.84 1.53 1.39 1.40 1.22 0.90 0.84 1.04 1.37 1.86 1.88 1.80 1.56 1.58 1.51 1.39 1.38 1.62 2.14 2.30 2.19 2.17 2.09 2.15 2.17 2.15 2.08 1.74 1.57 1.50 1.52 1.51 1.45 1.38 1.30 1.11 1.08 1.04 0.98 0.96 0.99 1.03 1.04
2.80 2.79 2.74 2.50 2.69 2.83 2.20 1.49 1.51 1.39 1.32 1.07 0.84 1.16 1.44 2.01 1.83 1.82 1.72 1.66 1.71 1.53 1.49 1.59 1.87 2.07 2.36 2.38 2.21 2.20 2.20 2.18 2.03 1.67 1.53 1.47 1.42 1.32 1.27 1.24 1.17 1.13 1.16 1.07 0.94 0.89 0.90 0.97 1.01
2.23 2.28 2.19 2.25 2.59 2.74 1.99 1.25 1.10 1.30 1.32 0.91 0.78 1.10 1.45 1.75 1.67 1.80 1.90 1.86 1.72 1.61 1.58 1.54 1.66 1.76 1.94 2.11 2.28 2.34 2.27 2.19 2.05 1.74 1.58 1.52 1.39 1.26 1.16 1.05 1.07 1.10 1.16 1.19 1.06 0.99 1.00 1.00 1.07
2.05 2.37 2.43 2.58 2.45 2.27 1.56 1.26 1.06 0.97 1.06 0.90 0.78 0.89 1.27 1.33 1.45 1.75 1.97 1.96 1.70 1.52 1.44 1.38 1.42 1.57 1.75 1.95 2.14 2.31 2.23 2.14 2.00 1.77 1.66 1.57 1.32 1.14 1.05 0.98 1.18 1.14 1.15 1.21 1.22 1.25 1.22 1.10 1.05
2.14 2.49 2.49 2.14 1.64 1.54 1.33 1.17 1.06 1.00 1.12 1.08 0.96 1.01 1.34 1.49 1.56 1.71 1.74 1.67 1.50 1.52 1.36 1.18 1.22 1.34 1.46 1.58 2.01 2.05 1.78 1.70 1.59 1.74 1.62 1.45 1.40 1.24 0.87 0.94 1.20 1.31 1.32 1.26 1.23 1.32 1.16 0.89 0.78
1.71 1.92 1.67 1.63 1.28 1.11 1.11 1.06 0.95 1.12 1.28 1.02 1.01 1.10 1.43 1.64 1.58 1.61 1.56 1.45 1.39 1.34 1.25 1.14 1.12 1.09 1.09 1.21 1.47 1.64 1.66 1.68 1.55 1.49 1.42 1.39 1.27 1.05 0.87 0.94 0.96 1.00 1.03 0.95 0.98 0.94 0.79 0.71 0.75
1.51 1.42 1.20 1.31 1.13 1.11 1.13 1.00 0.96 1.02 1.09 0.79 0.85 1.06 1.41 1.59 1.57 1.50 1.39 1.32 1.24 1.15 1.14 1.08 0.98 0.92 0.86 0.89 0.96 1.07 1.24 1.37 1.40 1.22 1.09 1.12 1.15 1.05 0.90 0.90 0.92 0.93 0.94 1.04 1.04 1.01 0.92 0.87 0.85
1.67 1.47 1.23 1.17 1.12 1.08 1.04 0.99 0.93 0.89 0.81 0.79 0.86 1.15 1.45 1.67 1.74 1.69 1.40 1.16 1.07 1.08 1.08 0.99 0.86 0.84 0.81 0.80 0.81 0.77 0.99 1.19 1.28 1.26 1.09 1.01 1.03 1.04 0.99 0.86 0.89 0.84 0.86 0.93 0.98 0.98 1.03 1.10 1.05
1.52 1.38 1.31 1.29 1.16 1.01 1.03 0.99 0.91 1.03 0.89 0.88 0.90 1.06 1.21 1.38 1.43 1.32 1.28 1.03 0.88 0.90 1.01 0.96 0.89 0.92 0.85 0.75 0.73 0.72 0.83 0.96 1.00 1.14 1.14 1.06 0.98 0.95 0.98 0.95 0.97 0.97 0.95 0.93 0.92 0.90 1.03 1.09 1.12
1.17 1.39 1.41 1.33 1.19 1.07 0.98 1.18 1.08 1.10 1.00 1.01 1.00 1.01 1.11 1.20 1.27 1.13 1.01 0.86 0.83 0.82 0.84 0.80 0.80 0.87 0.85 0.82 0.77 0.76 0.89 0.92 0.94 1.00 0.99 1.04 0.95 0.90 0.95 0.97 0.99 1.00 1.00 0.97 0.99 1.00 1.09 1.11 1.20
1.26 1.56 1.79 1.46 1.25 1.20 1.24 1.45 1.26 1.21 1.10 1.04 0.97 0.99 1.01 1.10 1.22 1.18 1.05 0.84 0.81 0.77 0.74 0.75 0.67 0.77 0.87 0.94 0.94 0.99 1.03 1.04 1.08 1.01 0.96 0.96 0.91 0.90 0.99 1.01 1.03 1.08 1.00 0.99 1.09 1.16 1.25 1.27 1.33
1.54 1.57 1.53 1.45 1.19 1.18 1.24 1.30 1.21 1.26 1.18 1.01 0.89 0.86 0.83 0.91 0.97 0.98 0.97 0.88 0.81 0.77 0.78 0.80 0.75 0.80 0.90 0.96 1.07 1.15 1.20 1.26 1.36 1.29 1.24 1.19 1.09 1.08 1.18 1.23 1.22 1.23 1.24 1.19 1.10 1.14 1.27 1.41 1.42
1.44 1.15 1.10 1.17 1.09 1.02 1.09 1.04 1.06 1.17 1.14 1.02 0.85 0.77 0.73 0.77 0.78 0.77 0.82 0.83 0.84 0.82 0.82 0.87 0.93 0.96 1.08 1.23 1.42 1.60 1.67 1.81 1.96 1.89 1.76 1.56 1.37 1.32 1.47 1.47 1.37 1.42 1.55 1.61 1.42 1.46 1.40 1.36 1.44
0.87 0.85 0.89 0.84 0.76 0.84 0.85 0.87 0.90 0.90 0.93 0.86 0.69 0.65 0.68 0.67 0.70 0.69 0.72 0.77 0.80 0.81 0.81 0.81 0.87 0.96 1.07 1.28 1.55 1.97 2.19 2.30 2.24 2.24 2.15 1.90 1.67 1.67 1.87 1.88 1.82 1.80 1.83 1.79 1.72 1.88 1.81 1.53 1.44
0.73 0.80 0.82 0.77 0.66 0.69 0.67 0.70 0.69 0.68 0.62 0.59 0.54 0.50 0.55 0.57 0.67 0.64 0.62 0.63 0.68 0.68 0.71 0.85 0.88 0.94 1.04 1.30 1.58 1.90 2.23 2.28 2.26 2.25 2.21 2.08 1.93 1.89 1.94 2.17 2.27 2.23 2.40 2.38 2.16 2.29 2.32 1.92 1.68
0.70 0.76 0.76 0.81 0.76 0.67 0.63 0.70 0.69 0.61 0.52 0.46 0.43 0.42 0.45 0.45 0.53 0.58 0.59 0.56 0.61 0.59 0.57 0.68 0.82 0.99 1.26 1.55 1.82 1.99 2.21 2.26 2.28 2.23 2.23 2.25 2.18 2.05 2.10 2.23 2.39 2.40 2.49 2.64 2.69 2.60 2.71 2.52 2.09
0.74 0.53 0.48 0.56 0.82 0.88 0.66 0.82 0.67 0.56 0.58 0.50 0.45 0.41 0.41 0.44 0.46 0.46 0.52 0.53 0.51 0.49 0.47 0.54 0.68 0.95 1.35 1.70 1.92 2.13 2.48 2.52 2.38 2.37 2.32 2.32 2.32 2.28 2.37 2.40 2.49 2.50 2.52 2.64 2.75 2.67 2.83 2.95 2.54
0.54 0.44 0.44 0.50 0.68 0.74 0.57 0.60 0.60 0.53 0.58 0.57 0.51 0.48 0.43 0.40 0.38 0.39 0.40 0.43 0.44 0.48 0.50 0.56 0.73 1.02 1.36 1.61 1.86 2.18 2.38 2.47 2.53 2.42 2.39 2.37 2.40 2.41 2.45 2.52 2.68 2.67 2.65 2.61 2.81 2.87 2.95 2.88 2.80
0.38 0.48 0.55 0.56 0.68 0.73 0.41 0.48 0.60 0.51 0.42 0.44 0.47 0.46 0.41 0.37 0.35 0.39 0.41 0.43 0.46 0.49 0.56 0.68 0.87 1.06 1.33 1.57 1.83 2.01 2.17 2.30 2.38 2.42 2.36 2.33 2.39 2.47 2.34 2.27 2.46 2.53 2.56 2.54 2.70 2.85 2.97 2.94 2.96
0.40 0.70 0.96 0.94 0.95 0.74 0.35 0.46 0.59 0.42 0.32 0.33 0.38 0.41 0.39 0.41 0.44 0.49 0.53 0.61 0.70 0.72 0.74 0.85 1.01 1.19 1.33 1.44 1.60 1.71 1.83 1.97 1.95 2.09 2.15 2.27 2.28 2.30 2.31 2.20 2.21 2.28 2.25 2.26 2.36 2.40 2.46 2.60 2.79
0.35 0.55 0.90 0.97 0.82 0.64 0.48 0.67 0.66 0.43 0.36 0.36 0.37 0.42 0.45 0.52 0.60 0.73 0.80 0.92 1.01 1.01 1.02 1.10 1.18 1.24 1.28 1.33 1.40 1.48 1.57 1.65 1.65 1.66 1.66 1.83 1.98 2.00 2.06 2.05 2.00 2.07 2.14 2.13 2.22 2.23 2.22 2.24 2.31
0.35 0.42 0.48 0.62 0.54 0.56 0.57 0.69 0.64 0.46 0.43 0.43 0.45 0.50 0.59 0.76 0.86 0.99 1.11 1.16 1.15 1.15 1.12 1.16 1.21 1.22 1.22 1.26 1.27 1.21 1.24 1.32 1.39 1.39 1.46 1.48 1.53 1.54 1.61 1.67 1.76 1.88 1.97 2.01 2.13 2.22 2.19 2.12 2.09
0.31 0.43 0.57 0.86 0.97 0.84 0.69 0.79 0.79 0.62 0.51 0.48 0.56 0.67 0.83 1.09 1.22 1.37 1.51 1.45 1.37 1.36 1.42 1.33 1.25 1.19 1.16 1.18 1.24 1.16 1.18 1.21 1.21 1.18 1.25 1.21 1.18 1.19 1.25 1.35 1.54 1.79 1.91 1.93 2.01 2.10 2.17 2.17 2.10
0.35 0.47 0.63 0.91 1.01 1.17 1.21 1.24 0.95 0.76 0.70 0.78 0.92 1.03 1.22 1.46 1.62 1.72 1.77 1.71 1.52 1.39 1.39 1.35 1.23 1.13 1.03 1.04 1.14 1.18 1.15 1.17 1.16 1.13 1.09 1.05 1.02 1.05 1.13 1.18 1.35 1.53 1.71 1.89 2.05 2.07 2.07 2.08 2.06
0.43 0.62 0.82 1.28 1.25 1.12 1.32 1.44 1.04 0.85 0.85 0.88 0.97 1.14 1.35 1.45 1.53 1.56 1.53 1.56 1.46 1.37 1.26 1.24 1.16 1.00 0.96 1.01 1.06 1.14 1.09 1.05 1.08 1.06 1.11 1.01 0.93 0.91 0.95 1.11 1.31 1.44 1.52 1.57 1.67 1.75 1.77 1.82 1.90